Phoenix Sky Harbor International Airport
KPHX : now visible

Airfield :











YOU CAN JOIN US ON...

 
LOGIN :

Register | Disclaimer

   EN    FR    IT 

 









Legend :    VFR   Marginal VFR   IFR   Intensive IFR   Very Intensive IFR
Visi :
Ceiling :
>= 8 km
>= 3000ft
5 to 8 km
1000 to 3000 ft
1500m to 5 km
500 to 1000 ft
800 to 1500m
200 to 500 ft
< 800m
< 200 ft
Symbols :   Thunderstorms  Fog  Heavy snow  Heavy precipitations  Wind > 20 kt






- Airport Elevation : 1135 ft
- IATA code : PHX


KPHX - Phoenix Sky Harbor International

CURRENT METAR :
  • 211851Z 14005KT 10SM FEW110 FEW190 BKN250 32/M01 A2981 RMK AO2 SLP078 T03171011

EXPIRED METARs :
  • 211751Z 13005KT 10SM FEW080 BKN250 30/M01 A2983 RMK AO2 SLP083 T03001006 10300 20194 50001
  • 211651Z 10004KT 10SM FEW080 BKN250 27/01 A2984 RMK AO2 SLP087 T02720006

TAF KPHX
Valid from the 21 at 18:00 until the 23 at 00:00 UTC


211723Z 2118/2224 10005KT P6SM FEW080 SCT250
FM212100 28005KT P6SM FEW250
FM220500 10005KT P6SM SKC
FM222100 25005KT P6SM FEW250
KZAB FIR / North America



MET'MAP, your aeronautical weather chart ! - Copyright ORBIFLY December 2007 - Disclaimer

ORBIFLY MET'MAP TEAM :

Programming & Development : Alexandra Zaïnal
Concept & original design : Baudouin d'Aumeries
Assistance for programming : Marc-Olivier Méhu
Technical & hardware support : Manuel Goepfert

Contact : metmap@orbifly.com




SOURCES & CREDITS :

   NOAA       Earth
Advisory